Moose, WY

12:32 PM MST on December 08, 2016 (GMT -0700)
Jackson Hole

Weather History for KJAC - May, 2013

Change the Weather History Date:

Wednesday, May 15, 2013

  Actual Average Record
Temperature  
Mean Temperature 54 °F -  
Max Temperature 71 °F 62 °F 77 °F (2012)
Min Temperature 37 °F 31 °F 21 °F (1970)
Degree Days  
Heating Degree Days 11    
Growing Degree Days 4 (Base 50)    
Moisture  
Dew Point 32 °F    
Average Humidity 47    
Maximum Humidity 87    
Minimum Humidity 23    
Precipitation  
Precipitation 0.00 in - - ()
Sea Level Pressure  
Sea Level Pressure 30.02 in    
Wind  
Wind Speed 7 mph (SW)    
Max Wind Speed 17 mph    
Max Gust Speed 22 mph    
Visibility 10 miles    
Events      
Averages and records for this station are not official NWS values.
T = Trace of Precipitation, MM = Missing Value Source: NWS Daily Summary

Daily Weather History Graph

Daily Weather History Graph

Search for Another Location

Airport or City:

Trip Planner

Search our weather history database for the weather conditions in past years. The results will help you decide how hot, cold, wet, or windy it might be!

Date:

Astronomy

May. 15, 2013 Rise Set
Actual Time 5:57 AM MDT 8:41 PM MDT
Civil Twilight 5:24 AM MDT 9:14 PM MDT
Nautical Twilight 4:42 AM MDT 9:56 PM MDT
Astronomical Twilight 3:54 AM MDT 10:45 PM MDT
Moon 10:38 AM MDT (5/15) 12:28 AM MDT (5/15)
Length of Visible Light 15h 50m
Length of Day
14h 43m
Waxing Crescent, 27% of the Moon is Illuminated
May 15
Waxing Crescent
May 17
First Quarter
May 24
Full
May 31
Last Quarter
Jun 8
New

Hourly Weather History & Observations

Time (MDT) Temp. Windchill Dew Point Humidity Pressure Visibility Wind Dir Wind Speed Gust Speed Precip Events Conditions
12:15 AM 55.4 °F - 28.4 °F 36% 30.05 in 10.0 mi South 6.9 mph - N/A   Clear
12:35 AM 51.8 °F - 28.4 °F 41% 30.05 in 10.0 mi SE 10.4 mph - N/A   Clear
12:55 AM 50.0 °F - 30.2 °F 47% 30.05 in 10.0 mi South 9.2 mph - N/A   Clear
1:15 AM 51.8 °F - 30.2 °F 44% 30.05 in 10.0 mi South 9.2 mph - N/A   Clear
1:35 AM 46.4 °F - 30.2 °F 53% 30.05 in 10.0 mi Calm Calm - N/A   Clear
1:55 AM 48.2 °F - 30.2 °F 50% 30.05 in 10.0 mi Calm Calm - N/A   Clear
2:35 AM 48.2 °F - 30.2 °F 50% 30.06 in 10.0 mi Calm Calm - N/A   Clear
2:55 AM 48.2 °F - 30.2 °F 50% 30.05 in 10.0 mi Calm Calm - N/A   Clear
3:16 AM 44.6 °F 40.7 °F 30.2 °F 57% 30.06 in 10.0 mi NNW 6.9 mph - N/A   Clear
3:35 AM 42.8 °F 40.1 °F 32.0 °F 66% 30.07 in 10.0 mi ENE 4.6 mph - N/A   Clear
3:55 AM 42.8 °F 39.3 °F 32.0 °F 66% 30.07 in 10.0 mi NE 5.8 mph - N/A   Clear
4:15 AM 42.8 °F 41.1 °F 33.8 °F 70% 30.07 in 10.0 mi NNE 3.5 mph - N/A   Clear
4:55 AM 41.0 °F 37.1 °F 32.0 °F 70% 30.08 in 10.0 mi North 5.8 mph - N/A   Clear
5:15 AM 39.2 °F 35.9 °F 32.0 °F 75% 30.08 in 10.0 mi North 4.6 mph - N/A   Clear
5:55 AM 39.2 °F 33.0 °F 32.0 °F 75% 30.07 in 10.0 mi North 9.2 mph - N/A   Clear
6:15 AM 39.2 °F 33.6 °F 33.8 °F 81% 30.07 in 10.0 mi North 8.1 mph - N/A   Partly Cloudy
6:35 AM 37.4 °F 29.8 °F 33.8 °F 87% 30.07 in 10.0 mi North 11.5 mph - N/A   Clear
6:51 AM 39.2 °F 31.6 °F 32.0 °F 75% 30.08 in 10.0 mi North 12.7 mph - N/A   Clear
7:51 AM 46.4 °F 42.4 °F 33.8 °F 62% 30.09 in 10.0 mi North 8.1 mph - N/A   Clear
8:53 AM 55.4 °F - 33.8 °F 44% 30.08 in 10.0 mi NNE 3.5 mph - N/A   Clear
9:55 AM 62.6 °F - 35.6 °F 37% 30.06 in 10.0 mi SSW 3.5 mph - N/A   Clear
10:58 AM 66.2 °F - 32.0 °F 28% 30.05 in 10.0 mi SE 12.7 mph - N/A   Clear
11:52 AM 69.8 °F - 30.2 °F 23% 30.03 in 10.0 mi WSW 4.6 mph - N/A   Clear
12:51 PM 68.0 °F - 30.2 °F 24% 30.01 in 10.0 mi SSE 3.5 mph - N/A   Scattered Clouds
1:51 PM 69.8 °F - 30.2 °F 23% 29.98 in 10.0 mi WSW 11.5 mph 16.1 mph N/A   Mostly Cloudy
2:54 PM 68.0 °F - 32.0 °F 26% 29.98 in 10.0 mi SW 6.9 mph - N/A   Mostly Cloudy
3:51 PM 71.6 °F - 33.8 °F 25% 29.95 in 10.0 mi SSW 6.9 mph - N/A   Scattered Clouds
4:55 PM 71.6 °F - 32.0 °F 23% 29.92 in 10.0 mi West 9.2 mph - N/A   Scattered Clouds
5:52 PM 69.8 °F - 32.0 °F 25% 29.92 in 10.0 mi WSW 5.8 mph - N/A   Scattered Clouds
6:51 PM 69.8 °F - 30.2 °F 23% 29.91 in 10.0 mi SW 8.1 mph - N/A   Scattered Clouds
7:53 PM 66.2 °F - 28.4 °F 24% 29.91 in 10.0 mi West 15.0 mph 18.4 mph N/A   Partly Cloudy
8:51 PM 62.6 °F - 30.2 °F 30% 29.93 in 10.0 mi SW 5.8 mph - N/A   Partly Cloudy
8:55 PM 62.6 °F - 30.2 °F 30% 29.93 in 10.0 mi SSW 8.1 mph - N/A   Scattered Clouds
9:35 PM 60.8 °F - 35.6 °F 39% 29.96 in 10.0 mi West 6.9 mph 21.9 mph N/A   Overcast
9:55 PM 57.2 °F - 35.6 °F 44% 29.95 in 10.0 mi SSE 3.5 mph - N/A   Partly Cloudy
10:15 PM 55.4 °F - 35.6 °F 47% 29.97 in 10.0 mi Calm Calm - N/A   Scattered Clouds
10:35 PM 53.6 °F - 35.6 °F 51% 29.97 in 10.0 mi SSW 11.5 mph 18.4 mph N/A   Mostly Cloudy
10:55 PM 57.2 °F - 39.2 °F 51% 29.97 in 10.0 mi SSW 17.3 mph - N/A   Mostly Cloudy
11:35 PM 53.6 °F - 39.2 °F 58% 29.97 in 10.0 mi SW 6.9 mph - N/A   Partly Cloudy